User: anonymous   Login
Location: Dompnac
(44.5644°N, 4.1026°E)
Time: 14:19:28
(UTC+00:00)
Language:

Lacrosse 4 Rocket - Orbit

View from above orbital plane
View from above orbital plane
View from above satellite
View from above satellite

Ground track
Ground track

The orbit data is extracted from the following two-line orbital elements,

1 26474U 00047B   20334.12653279  .00000440  00000-0  48919-4 0  9994
2 26474  67.9939 342.4008 0054847  11.2626 348.9728 14.96028019103954
Epoch (UTC): 29 November 2020 03:02:12
Eccentricity: 0.0054847
inclination: 67.9939°
perigee height: 541 km
apogee height: 617 km
right ascension of ascending node: 342.4008°
argument of perigee: 11.2626°
revolutions per day: 14.96028019
mean anomaly at epoch: 348.9728°
orbit number at epoch: 10395

The dashed part of the orbit path shows where the satellite is in the earth's shadow,  

DLR